Content
SEND FEEDBACK

Daily
Averages
Monthly
Summary
United States of America

NEW YORK - CENTRAL PARK, NEW YORK


Home > North America > United States > New York
Elevation: 14 feet     Latitude: 40 47N     Longitude: 073 58W

WEATHER
 
SELECT A DAY
Number of Records: 147,926;   Date Range: 11/1/95 - 7/7/14
 
SHARE

PRINT THIS DATA

[ ← Previous Day ]
WEATHER ALMANAC - MARCH 22, 2013
[ Next Day → ]
[ °C ]   °F
Weather ElementAverageHighLow
Temperature34.9 °F39.9 °F (4:51 pm)28.9 °F (5:51 am)
Dewpoint15.5 °F21 °F (11:51 pm)10.9 °F (2:51 am)
Humidity45.7 %58 % (6:51 am)36 % (4:51 pm)
Barometer29.79 in29.88 in (11:51 pm)29.73 in (3:51 am)
Wind Speed8.8 mph13.8 mph (6:51 pm)
Wind Gust25.3 mph (6:51 pm)
Weather ElementAverage
Visibility10 mi
Wind DirectionWSW (237.4 °)

Weather ElementTotal
Precipitation---
Heating Degree Days30.6 (Base 65)
Averaged from 23 records on March 22, 2013
WEATHER CONDITIONS BREAKOUT
WIND DIRECTION BREAKOUT
WEATHER BY HOUR - MARCH 22, 2013
[ °C ]   °F
Local TimeTemperatureDewpointHumidityBarometerVisibilityWind DirectionWind SpeedGust SpeedPrecipitationEventsConditions
1:51 AM30.0 °F12.0 °F47 %29.75 in10.0 miWest (280°)8.1 mphClear
2:51 AM30.0 °F10.9 °F45 %29.74 in10.0 miVariable5.8 mphOvercast
3:51 AM30.0 °F10.9 °F45 %29.73 in10.0 miWNW (290°)9.2 mphMostly Cloudy
4:51 AM30.0 °F14.0 °F51 %29.73 in10.0 miWNW (290°)4.6 mphOvercast
5:51 AM28.9 °F15.1 °F56 %29.74 in10.0 miWNW (290°)8.1 mphMostly Cloudy
6:51 AM28.9 °F16.0 °F58 %29.75 in10.0 miWest (260°)4.6 mphClear
7:51 AM28.9 °F16.0 °F58 %29.78 in10.0 miWest (270°)8.1 mph17.3 mphScattered Clouds
8:51 AM30.9 °F17.1 °F57 %29.79 in10.0 miWest (270°)10.4 mph16.1 mphClear
9:51 AM33.1 °F15.1 °F48 %29.79 in10.0 miVariable5.8 mph17.3 mphClear
10:51 AM35.1 °F15.1 °F44 %29.79 in10.0 miNW (320°)11.5 mphPartly Cloudy
11:51 AM36.0 °F15.1 °F43 %29.80 in10.0 miNorthMostly Cloudy
12:51 PM37.0 °F15.1 °F41 %29.79 in10.0 miWest (280°)10.4 mph24.2 mphMostly Cloudy
1:51 PM39.0 °F15.1 °F38 %29.78 in10.0 miWNW (300°)11.5 mph20.7 mphMostly Cloudy
2:51 PM39.0 °F15.1 °F38 %29.78 in10.0 miNW (310°)5.8 mph17.3 mphOvercast
3:51 PM39.0 °F15.1 °F38 %29.78 in10.0 miWNW (290°)11.5 mph19.6 mphOvercast
4:51 PM39.9 °F15.1 °F36 %29.78 in10.0 miWNW (300°)12.7 mph19.6 mphOvercast
5:51 PM39.9 °F16.0 °F38 %29.79 in10.0 miNorthMostly Cloudy
6:51 PM39.0 °F16.0 °F39 %29.81 in10.0 miWNW (300°)13.8 mph25.3 mphOvercast
7:51 PM39.0 °F16.0 °F39 %29.84 in10.0 miWest (280°)9.2 mph24.2 mphClear
8:51 PM39.0 °F17.1 °F41 %29.85 in10.0 miWNW (300°)9.2 mphOvercast
9:51 PM37.0 °F18.0 °F46 %29.86 in10.0 miWNW (290°)9.2 mph17.3 mphClear
10:51 PM37.0 °F19.9 °F50 %29.87 in10.0 miWSW (250°)6.9 mphClear
11:51 PM36.0 °F21.0 °F55 %29.88 in10.0 miWNW (290°)9.2 mphScattered Clouds
Hourly data recorded from KNYC, located miles away from New York - Central Park, New York







STORIES FROM OUR PARTNERS